Starlink 31183

operational
NORAD ID: 58747 Int'l Des: 2024-005 Owner: SPXS Country: US Constellation: starlink
LEOCIRCULAR

关于 Starlink 31183

正在加载描述...

实时位置

正在加载3D地球...

即将过境

高度历史

Altitude vs Time

uPlot chart will show altitude changes over time

两行轨道根数

1 58747U 24005V 25303.79178655 .00002970 00000-0 23489-3 0 9990
2 58747 42.9996 207.2817 0000976 269.4266 90.6464 15.02522650100981
Epoch: Oct 30, 2025 • Age: 25 hours

当前状态

高度 558.6 km
速度 7.58 km/s
星下点 4.45°N, 41.02°E
发射日期 Jan 7, 2024
运行时间 1.8 years
类型 internet

技术详情

分类 Payload
质量 730.00 kg
干质量 700.00 kg
总质量 730.00 kg
长度 0.30 m
直径 4.10 m
跨度 29.00 m
形状 Box + pan
制造商 SPXS
平台类型 Starlink V2M
阶段状态 In Orbit
所有者/国家 SPXS/US

大型星座

Loading constellations...